DateTimeUTC,F1_A11,F1_S11,BsB_S11,BsG_S11,BsR_S11,BbsB_S11,BbsG_S11,BbsR_S11,BaB_A11,BaG_A11,BaR_A11,Tu_S11,T_S11,Uu_S11,U_S11,P_S11,T1_A11
2021-04-02T03:00:00Z,00000200,20000000,,,,,,,0000.18,-000.03,0000.32,16.8,23.7,02.9,01.9,0653.8,30.9
2021-04-02T03:01:00Z,00000200,20000000,,,,,,,0000.20,-000.34,0000.06,16.8,23.7,02.9,01.9,0653.8,31.0
2021-04-02T03:02:00Z,00000200,20000000,,,,,,,-000.22,-000.37,-000.45,16.8,23.7,02.9,01.9,0653.8,30.9
2021-04-02T03:03:00Z,00000200,60000000,,,,,,,0000.38,0000.58,0000.61,16.8,23.7,02.9,01.9,0653.8,30.9
2021-04-02T03:04:00Z,00000200,40000000,0000.46,0000.36,0000.07,0000.24,0000.08,-000.06,0000.13,0000.28,-000.25,16.9,23.5,03.0,02.0,0654.7,30.9
2021-04-02T03:05:00Z,00000200,00000000,0000.22,0000.08,0000.26,0000.16,-000.10,0000.27,-000.52,0000.16,0000.34,16.9,23.5,03.1,02.1,0654.6,30.9
2021-04-02T03:06:00Z,00000200,00080000,-000.67,0000.23,-000.36,0000.13,0000.04,-000.36,0000.34,-000.08,-000.32,16.9,23.5,03.1,02.1,0654.6,30.9
2021-04-02T03:07:00Z,00000200,00000000,0000.15,0000.25,0000.03,0000.18,0000.15,-000.17,0000.46,0000.13,0000.35,16.9,23.5,03.1,02.1,0654.8,30.9
2021-04-02T03:08:00Z,00000200,00000000,0000.15,0000.16,0000.31,-000.18,0000.10,0000.03,-000.19,0000.07,0000.07,16.9,23.5,03.1,02.1,0654.9,30.9
2021-04-02T03:09:00Z,00000200,00000000,-000.35,0000.07,0000.14,-000.24,0000.24,0000.07,-000.29,-000.06,-000.23,16.9,23.4,03.1,02.1,0654.8,30.9
2021-04-02T03:10:00Z,00000200,00000000,-000.02,0000.06,0000.24,-000.03,0000.12,-000.08,0000.08,-000.23,0000.35,16.9,23.4,03.0,02.0,0654.6,30.9
2021-04-02T03:11:00Z,00000200,00000000,0000.12,0000.18,-000.12,0000.25,-000.01,0000.05,0000.28,0000.16,-000.10,16.9,23.4,03.0,02.0,0654.5,30.9
2021-04-02T03:12:00Z,00000200,00000000,0000.34,0000.61,0000.05,0000.25,0000.09,-000.13,0000.18,0000.89,0000.12,16.9,23.4,03.1,02.1,0654.7,30.9
2021-04-02T03:13:00Z,00000200,00000000,-000.27,0000.16,0000.20,-000.11,-000.07,0000.16,0000.16,-000.70,0000.22,16.9,23.4,03.0,02.0,0654.6,30.9
2021-04-02T03:14:00Z,00000200,00000000,-000.11,0000.22,0000.02,0000.14,-000.00,0000.32,-000.33,0000.47,0000.02,16.9,23.4,03.0,02.0,0654.6,30.9
2021-04-02T03:15:00Z,00000200,00000000,0000.01,0000.12,0000.00,0000.61,0000.12,0000.00,0000.44,-000.16,-000.16,16.9,23.4,03.0,02.0,0654.6,30.9
2021-04-02T03:16:00Z,00000200,00000000,-000.46,0000.20,-000.14,-000.43,0000.01,0000.03,0000.02,0000.34,0000.34,16.9,23.4,03.0,02.0,0654.5,30.9
2021-04-02T03:17:00Z,00000200,00000000,0000.19,0000.14,0000.01,-000.09,0000.11,0000.12,-000.17,0000.03,-000.05,16.9,23.4,03.0,02.0,0654.7,30.9
2021-04-02T03:18:00Z,00000200,00000000,-000.19,0000.38,-000.18,-000.06,-000.04,0000.15,-000.04,-000.38,-000.38,16.8,23.4,02.9,02.0,0654.8,30.9
2021-04-02T03:19:00Z,00000200,00000000,0000.17,0000.07,0000.17,-000.09,0000.11,-000.07,0000.29,0000.34,0000.21,16.9,23.4,02.9,01.9,0654.7,30.9
2021-04-02T03:20:00Z,00000200,00000000,0000.12,-000.09,0000.09,-000.26,0000.15,0000.11,-000.13,-000.19,-000.02,16.9,23.4,03.0,02.0,0654.8,30.9
2021-04-02T03:21:00Z,00000200,00000000,-000.23,0000.33,-000.02,-000.21,0000.12,-000.05,0000.17,0000.18,0000.41,16.8,23.4,02.9,02.0,0654.7,30.9
2021-04-02T03:22:00Z,00000200,00000000,0000.41,0000.29,0000.22,0000.25,0000.24,-000.00,0000.29,0000.43,0000.10,16.8,23.3,02.9,01.9,0654.8,30.9
2021-04-02T03:23:00Z,00000200,00000000,0000.26,0000.31,0000.04,0000.57,0000.09,-000.03,0000.17,-000.34,0000.17,16.8,23.3,03.1,02.1,0654.8,30.9
2021-04-02T03:24:00Z,00000200,00000000,0000.44,0000.05,0000.02,0000.09,-000.03,0000.10,-000.05,0000.08,0000.11,16.8,23.3,03.0,02.0,0654.8,30.9
2021-04-02T03:25:00Z,00000200,00000000,0000.18,0000.11,0000.01,0000.04,0000.06,0000.02,0000.25,0000.68,0000.21,16.9,23.3,02.9,01.9,0654.6,30.9
2021-04-02T03:26:00Z,00000200,00000000,-000.17,0000.25,0000.10,0000.09,0000.24,-000.21,-000.61,-000.43,-000.17,16.9,23.4,03.0,02.0,0654.6,31.0
2021-04-02T03:27:00Z,00000200,00000000,0000.01,0000.26,0000.13,0000.01,0000.10,0000.05,0000.90,0000.78,0000.02,16.9,23.4,03.0,02.0,0654.6,30.9
2021-04-02T03:28:00Z,00000200,00000000,0000.59,0000.40,0000.21,-000.54,-000.06,0000.08,-007.00,-000.52,0000.31,16.9,23.4,02.9,01.9,0654.6,30.9
2021-04-02T03:29:00Z,00000200,00000000,-000.04,0000.23,0000.01,-000.19,0000.08,-000.03,0007.01,0000.12,-000.03,16.9,23.4,02.9,02.0,0654.6,30.9
2021-04-02T03:30:00Z,00000200,00000000,0000.18,-000.01,0000.03,0000.11,0000.08,-000.01,-000.32,-000.50,0000.01,17.0,23.4,02.9,02.0,0654.4,30.9
2021-04-02T03:31:00Z,00000200,00000000,-000.09,0000.23,0000.05,-000.08,0000.09,0000.06,0000.46,0000.89,0000.08,17.0,23.4,02.8,01.9,0654.6,30.9
2021-04-02T03:32:00Z,00000200,00000000,-000.25,0000.18,-000.05,0000.05,0000.04,-000.03,0000.37,0000.32,0000.17,17.0,23.4,03.0,02.0,0654.6,30.9
2021-04-02T03:33:00Z,00000200,00000000,-000.33,0000.16,0000.33,0000.09,0000.37,0000.03,-000.34,-000.37,-000.17,17.0,23.4,02.9,01.9,0654.6,30.9
2021-04-02T03:34:00Z,00000200,00000000,0000.39,0000.11,0000.17,-000.20,0000.03,0000.02,-000.61,-000.47,-000.15,17.0,23.4,02.7,01.8,0654.5,30.9
2021-04-02T03:35:00Z,00000200,00080000,-000.23,-000.07,-000.05,-000.00,0000.02,-000.14,0000.69,0000.50,0000.11,17.0,23.4,02.8,01.9,0654.5,30.9
2021-04-02T03:36:00Z,00000200,00000000,-000.21,0000.03,-000.02,0000.09,0000.29,-000.22,-000.33,-000.09,-000.09,17.0,23.4,02.8,01.9,0654.5,30.9
2021-04-02T03:37:00Z,00000200,00000000,0000.02,0000.27,-000.10,0000.12,0000.08,0000.06,-000.37,-000.57,-000.13,16.9,23.4,02.7,01.8,0654.6,30.9
2021-04-02T03:38:00Z,00000200,00000000,-000.39,0000.43,-000.16,-000.18,0000.17,-000.02,0000.16,0000.18,0000.03,16.9,23.4,02.7,01.8,0654.7,30.9
2021-04-02T03:39:00Z,00000200,00000000,0000.07,0000.07,0000.06,-000.03,-000.02,0000.26,-000.37,-000.07,0000.09,16.9,23.4,02.6,01.7,0654.7,30.9
2021-04-02T03:40:00Z,00000200,00000000,0000.16,-000.00,0000.15,-000.55,-000.04,-000.13,0000.25,-000.14,0000.06,16.9,23.4,02.6,01.7,0654.8,30.9
2021-04-02T03:41:00Z,00000200,00000000,-000.10,0000.02,0000.15,-000.03,0000.02,0000.07,-000.36,-000.37,-000.12,16.9,23.4,02.6,01.7,0654.7,30.9
2021-04-02T03:42:00Z,00000200,00000000,-000.40,0000.23,0000.10,0000.19,0000.05,0000.29,0000.05,0000.01,-000.45,16.9,23.4,02.5,01.7,0654.7,30.9
2021-04-02T03:43:00Z,00000200,00000000,0000.19,-000.00,0000.16,0000.22,-000.02,0000.06,-000.19,-000.07,0000.24,16.9,23.4,02.4,01.6,0654.7,30.9
2021-04-02T03:44:00Z,00000200,00000000,0000.27,0000.29,-000.08,0000.16,-000.02,-000.08,-000.76,0000.30,-000.15,16.9,23.4,02.3,01.5,0654.8,30.9
2021-04-02T03:45:00Z,00000200,00000000,0000.38,0000.05,0000.08,0000.27,0000.03,-000.00,0000.79,-000.12,0000.25,16.9,23.4,02.4,01.6,0654.8,30.9
2021-04-02T03:46:00Z,00000200,00000000,0000.34,0000.08,-000.11,-000.04,-000.02,-000.11,0000.56,0000.46,0000.32,16.9,23.4,02.4,01.6,0654.8,30.9
2021-04-02T03:47:00Z,00000200,00000000,0000.65,-000.10,-000.06,-000.07,0000.15,-000.10,0000.05,-000.09,-000.25,16.8,23.3,02.5,01.6,0654.9,30.9
2021-04-02T03:48:00Z,00000200,00000000,-000.25,-000.09,-000.12,0000.11,0000.17,0000.16,-000.16,-000.25,0000.30,16.8,23.3,02.5,01.6,0654.8,30.9
2021-04-02T03:49:00Z,00000200,00000000,0000.46,0000.05,0000.08,-000.57,-000.02,0000.17,-000.01,-000.07,0000.12,16.8,23.3,02.4,01.6,0654.7,30.9
2021-04-02T03:50:00Z,00000200,00000000,-001.86,-001.69,-001.85,-001.92,-001.90,-001.75,0000.12,0000.49,-000.09,16.8,23.3,02.3,01.5,0654.8,30.9
2021-04-02T03:51:00Z,00000200,00000000,0000.11,0000.07,0000.08,-000.23,0000.11,-000.04,0000.01,0000.06,-000.31,16.8,23.3,02.4,01.6,0654.8,30.9
2021-04-02T03:52:00Z,00000200,00000000,0000.24,-000.08,0000.15,0000.04,0000.16,-000.07,-000.09,-000.11,-000.04,16.8,23.3,02.4,01.6,0654.8,30.9
2021-04-02T03:53:00Z,00000200,00000000,0000.12,-000.15,0000.11,-000.58,0000.11,-000.29,0000.25,-618.85,0000.29,16.8,23.3,02.3,01.6,0654.8,30.9
2021-04-02T03:54:00Z,00000200,00000000,0000.31,0000.13,0000.18,0000.13,0000.27,0000.09,0000.11,0618.17,0000.32,16.8,23.3,02.3,01.6,0654.8,30.9
2021-04-02T03:55:00Z,00000200,00000000,0000.23,0000.16,0000.02,0000.10,0000.05,-000.06,-000.01,-000.29,0000.12,16.8,23.3,02.3,01.5,0654.8,30.9
2021-04-02T03:56:00Z,00000200,00000000,-000.20,0000.00,0000.06,0000.11,-000.13,-000.06,0000.00,-000.07,-000.42,16.9,23.3,02.3,01.6,0654.8,30.9
2021-04-02T03:57:00Z,00000200,40000000,,,,,,,0000.90,0000.83,0000.67,17.0,23.4,02.5,01.7,0654.8,30.9
2021-04-02T03:58:00Z,00000200,60000000,,,,,,,-000.61,-000.72,-000.40,16.7,23.5,02.5,01.6,0653.9,30.9
2021-04-02T03:59:00Z,00000200,20000000,,,,,,,-000.16,0000.31,0000.22,16.7,23.6,02.3,01.5,0653.9,30.9
